Weather History for KBIL - January, 2014

Change the Weather History Date:

Monday, January 13, 2014

  Actual Average Record
Temperature  
Mean Temperature 41 °F 27 °F  
Max Temperature 52 °F 36 °F 61 °F (1996)
Min Temperature 30 °F 18 °F -22 °F (1972)
Degree Days  
Heating Degree Days 24 38  
Month to date heating degree days 463 501  
Since 1 July heating degree days 3388 3322  
Cooling Degree Days 0 0  
Month to date cooling degree days 0 0  
Year to date cooling degree days 0 0  
Moisture  
Dew Point 25 °F    
Average Humidity 62    
Maximum Humidity 92    
Minimum Humidity 32    
Precipitation  
Precipitation 0.02 in 0.01 in 0.15 in (1984)
Month to date precipitation 0.58 0.20  
Year to date precipitation 0.58 0.20  
Snow  
Snow 0.20 in 0.30 in 4.20 in (1947)
Month to date snowfall 9.5 3.7  
Since 1 July snowfall 44.5 23.6  
Snow Depth T in    
Sea Level Pressure  
Sea Level Pressure 29.87 in    
Wind  
Wind Speed 33 mph (NW)    
Max Wind Speed 55 mph    
Max Gust Speed 67 mph    
Visibility 8 miles    
Events Snow    
T = Trace of Precipitation, MM = Missing Value Source: NWS Daily Summary

Daily Weather History Graph

Daily Weather History Graph

Search for Another Location

Airport or City:

Trip Planner

Search our weather history database for the weather conditions in past years. The results will help you decide how hot, cold, wet, or windy it might be!

Date:

Astronomy

Jan. 13, 2014 Rise Set
Actual Time 7:52 AM MST 4:53 PM MST
Civil Twilight 7:19 AM MST 5:27 PM MST
Nautical Twilight 6:41 AM MST 6:04 PM MST
Astronomical Twilight 6:06 AM MST 6:40 PM MST
Moon 3:12 PM MST (1/13) 5:42 AM MST (1/13)
Length of Visible Light 10h 08m
Length of Day
9h 01m
Waxing Gibbous, 95% of the Moon is Illuminated
Jan 13
Waxing Gibbous
Jan 15
Full
Jan 23
Last Quarter
Jan 30
New
Feb 6
First Quarter

Hourly Weather History & Observations

Time (MST) Temp. Windchill Dew Point Humidity Pressure Visibility Wind Dir Wind Speed Gust Speed Precip Events Conditions
12:53 AM 35.1 °F 27.4 °F 18.0 °F 50% 29.79 in 10.0 mi SW 10.4 mph 21.9 mph N/A   Mostly Cloudy
1:53 AM 39.9 °F 28.6 °F 21.0 °F 47% 29.74 in 10.0 mi West 28.8 mph 38.0 mph N/A   Overcast
2:53 AM 41.0 °F 29.1 °F 23.0 °F 49% 29.73 in 10.0 mi West 34.5 mph 43.7 mph N/A   Overcast
3:53 AM 39.9 °F 26.5 °F 26.1 °F 58% 29.72 in 10.0 mi West 42.6 mph 55.2 mph N/A   Scattered Clouds
4:53 AM 42.1 °F 31.0 °F 25.0 °F 51% 29.73 in 10.0 mi West 32.2 mph 47.2 mph N/A   Scattered Clouds
5:53 AM 43.0 °F 31.2 °F 25.0 °F 49% 29.72 in 10.0 mi West 39.1 mph 47.2 mph N/A   Scattered Clouds
6:53 AM 43.0 °F 32.2 °F 25.0 °F 49% 29.73 in 10.0 mi West 32.2 mph 41.4 mph N/A   Scattered Clouds
7:53 AM 45.0 °F 34.0 °F 24.1 °F 44% 29.70 in 10.0 mi West 39.1 mph 51.8 mph N/A   Scattered Clouds
8:53 AM 46.0 °F 35.5 °F 24.1 °F 42% 29.71 in 10.0 mi West 39.1 mph 49.5 mph N/A   Scattered Clouds
9:53 AM 48.0 °F - 24.1 °F 39% 29.69 in 10.0 mi West 46.0 mph 56.4 mph N/A   Partly Cloudy
10:53 AM 50.0 °F - 24.1 °F 36% 29.68 in 10.0 mi West 49.5 mph 62.1 mph N/A   Partly Cloudy
11:53 AM 51.1 °F - 24.1 °F 35% 29.68 in 10.0 mi West 42.6 mph 55.2 mph N/A   Partly Cloudy
12:53 PM 52.0 °F - 24.1 °F 34% 29.68 in 10.0 mi West 47.2 mph 58.7 mph N/A   Partly Cloudy
1:53 PM 51.1 °F - 24.1 °F 35% 29.70 in 10.0 mi West 48.3 mph 58.7 mph N/A   Partly Cloudy
2:53 PM 51.1 °F - 23.0 °F 33% 29.73 in 10.0 mi West 46.0 mph 56.4 mph N/A   Scattered Clouds
3:53 PM 48.9 °F - 23.0 °F 36% 29.77 in 10.0 mi West 42.6 mph 59.8 mph N/A   Mostly Cloudy
4:53 PM 46.9 °F - 24.1 °F 41% 29.84 in 10.0 mi West 33.4 mph 41.4 mph N/A   Mostly Cloudy
5:53 PM 37.9 °F 26.8 °F 27.0 °F 65% 29.95 in 10.0 mi North 24.2 mph 29.9 mph N/A   Overcast
6:26 PM 33.1 °F 21.5 °F 28.9 °F 85% 29.96 in 5.0 mi NNE 19.6 mph 32.2 mph 0.00 in Snow Light Snow
6:41 PM 32.0 °F 19.5 °F 30.0 °F 92% 29.97 in 3.0 mi NNE 21.9 mph - 0.00 in Snow Light Snow
6:48 PM 32.0 °F 20.1 °F 30.2 °F 93% 29.99 in 2.5 mi North 19.6 mph - 0.00 in Snow Light Snow
6:53 PM 32.0 °F 20.1 °F 30.0 °F 92% 30.04 in 2.0 mi North 19.6 mph - 0.00 in Snow Light Snow
6:57 PM 32.0 °F 20.8 °F 30.0 °F 92% 29.99 in 1.2 mi North 17.3 mph - 0.00 in Snow Light Snow
7:53 PM 30.9 °F 18.1 °F 28.9 °F 92% 30.12 in 1.2 mi North 21.9 mph - 0.00 in Snow Light Snow
8:05 PM 30.9 °F 19.1 °F 28.9 °F 92% 30.06 in 1.5 mi North 18.4 mph - 0.00 in Snow Light Snow
8:19 PM 30.9 °F 18.1 °F 28.9 °F 92% 30.07 in 2.5 mi North 21.9 mph 29.9 mph 0.00 in Snow Light Snow
8:40 PM 30.9 °F 18.4 °F 28.0 °F 89% 30.08 in 5.0 mi North 20.7 mph - 0.00 in Snow Light Snow
8:53 PM 30.9 °F 19.8 °F 28.0 °F 89% 30.15 in 6.0 mi NNW 16.1 mph - 0.00 in Snow Light Snow
9:53 PM 30.9 °F 19.4 °F 25.0 °F 79% 30.17 in 9.0 mi NNW 17.3 mph 27.6 mph 0.00 in Snow Light Snow
10:53 PM 30.9 °F 19.8 °F 26.1 °F 82% 30.22 in 10.0 mi WNW 16.1 mph - 0.00 in   Overcast
11:53 PM 30.0 °F 16.3 °F 24.1 °F 79% 30.23 in 10.0 mi NNW 24.2 mph - N/A   Overcast